Hourly Data Report for October 07, 2016

All times are specified in Local Standard Time (LST). Add 1 hour to adjust for Daylight Saving Time where and when it is observed.

EUREKA CLIMATE
NUNAVUT

79°59'21.000" N
85°56'02.000" W
10.00 m
2401199
71613
NEK

Download Data

Hourly Data (October 2016)
Hourly Data Report for October 7, 2016
Temp Definition
°C
Dew Point Temp Definition
°C
Rel Hum Definition
%
Wind Dir Definition
10's deg

Wind Spd Definition
km/h
Visibility Definition
km
Stn Press Definition
kPa
Hmdx Definition


Wind Chill Definition


Weather Definition


TIME
00:00 -9.6 -11.2 88 31 15   100.45   -16 LegendNANA
01:00 -13.4 -15.3 85 1 13   100.47   -20 LegendNANA
02:00 -15.3 -17.1 86 3 9   100.49   -21 LegendNANA
03:00 -15.2 -16.8 88 2 13   100.49   -23 LegendNANA
04:00 -14.0 -15.0 92 11 17   100.51   -22 LegendNANA
05:00 -13.1 -14.0 93 9 15   100.52   -21 LegendNANA
06:00 -12.4 -13.3 93 7 6   100.50   -16 LegendNANA
07:00
08:00 -7.6 -8.4 94 12 14   100.48   -14 LegendNANA
09:00 -8.1 -8.9 93 7 4   100.53   -10 LegendNANA
10:00 -6.7 -7.8 92 10 6   100.53   -10 LegendNANA
11:00 -6.6 -7.2 96 12 11   100.57   -12 LegendNANA
12:00 -7.0 -8.0 92 13 14   100.59   -13 LegendNANA
13:00 -6.3 -8.2 86 13 18   100.64   -13 LegendNANA
14:00 -6.4 -8.5 85 13 19   100.69   -13 LegendNANA
15:00 -5.4 -7.6 85 12 19   100.73   -12 LegendNANA
16:00 -5.9 -7.5 88 13 22   100.76   -13 LegendNANA
17:00 -5.4 -6.5 92 17 32   100.77   -14 LegendNANA
18:00 -5.6 -6.8 91 18 14   100.84   -11 LegendNANA
19:00 -5.8 -7.4 88 12 12   100.87   -11 LegendNANA
20:00 -4.6 -7.4 81 16 22   100.88   -11 LegendNANA
21:00 -4.7 -7.5 81 16 23   100.89   -12 LegendNANA
22:00 -5.8 -7.3 90 9 13   100.93   -11 LegendNANA
23:00 -4.6 -5.9 90 16 23   100.92   -12 LegendNANA

Notes on Data Quality.

Legend

  • E = Estimated
  • M = Missing
  • NA = Not Available
  • ‡ = Partner data that is not subject to review by the National Climate Archives
Date modified: